Satellite-Ground Cal/Val Region Overpasses Predictions

Prediction of Satellite NPP Overpassing Cal/Val Region: PacNW

Region Location: (Latitude: 10.00, Longitude: 139.50) to (Latitude: 22.70, Longitude: 165.60).

Table of predicted overpasses for the next 14.0 days since TLE Epoch: 6/10/2023
Interval Starting Time Starting Location Ending Time Ending Location
1 06/10/2023 02:41:03 ( 10.77, 159.82) 06/10/2023 02:44:26 ( 22.69, 156.98)
2 06/10/2023 15:12:43 ( 22.69, 157.21) 06/10/2023 15:16:19 ( 10.01, 154.20)
3 06/11/2023 02:21:48 ( 10.03, 164.75) 06/11/2023 02:25:23 ( 22.65, 161.75)
4 06/11/2023 14:53:41 ( 22.66, 161.96) 06/11/2023 14:57:16 ( 10.04, 158.97)
5 06/12/2023 03:44:15 ( 10.01, 144.14) 06/12/2023 03:47:51 ( 22.69, 141.13)
6 06/12/2023 14:35:56 ( 18.06, 165.60) 06/12/2023 14:38:13 ( 10.01, 163.72)
7 06/12/2023 16:16:07 ( 22.68, 141.35) 06/12/2023 16:18:17 ( 15.05, 139.51)
8 06/13/2023 03:25:12 ( 10.04, 148.89) 06/13/2023 03:28:47 ( 22.66, 145.89)
9 06/13/2023 15:57:05 ( 22.65, 146.11) 06/13/2023 16:00:40 ( 10.03, 143.11)
10 06/14/2023 03:06:09 ( 10.01, 153.66) 06/14/2023 03:09:45 ( 22.69, 150.64)
11 06/14/2023 15:38:01 ( 22.68, 150.87) 06/14/2023 15:41:37 ( 10.00, 147.86)
12 06/15/2023 02:47:06 ( 10.04, 158.41) 06/15/2023 02:50:41 ( 22.66, 155.41)
13 06/15/2023 15:18:59 ( 22.65, 155.63) 06/15/2023 15:22:34 ( 10.03, 152.63)
14 06/16/2023 02:28:03 ( 10.01, 163.17) 06/16/2023 02:31:39 ( 22.69, 160.16)
15 06/16/2023 14:59:55 ( 22.68, 160.39) 06/16/2023 15:03:30 ( 10.06, 157.39)
16 06/17/2023 02:11:49 ( 19.97, 165.60) 06/17/2023 02:12:35 ( 22.67, 164.93)
17 06/17/2023 03:50:30 ( 10.05, 142.55) 06/17/2023 03:54:05 ( 22.68, 139.55)
18 06/17/2023 14:40:53 ( 22.65, 165.14) 06/17/2023 14:44:28 ( 10.03, 162.15)
19 06/17/2023 16:22:22 ( 22.69, 139.78) 06/17/2023 16:22:41 ( 21.58, 139.50)
20 06/18/2023 03:31:27 ( 10.03, 147.31) 06/18/2023 03:35:02 ( 22.65, 144.32)
21 06/18/2023 16:03:19 ( 22.66, 144.53) 06/18/2023 16:06:54 ( 10.04, 141.54)
22 06/19/2023 03:12:23 ( 10.01, 152.08) 06/19/2023 03:15:59 ( 22.69, 149.07)
23 06/19/2023 15:44:16 ( 22.68, 149.30) 06/19/2023 15:47:52 ( 10.00, 146.29)
24 06/20/2023 02:53:21 ( 10.04, 156.83) 06/20/2023 02:56:56 ( 22.67, 153.84)
25 06/20/2023 15:25:14 ( 22.65, 154.05) 06/20/2023 15:28:49 ( 10.03, 151.05)
26 06/21/2023 02:34:17 ( 10.02, 161.60) 06/21/2023 02:37:52 ( 22.64, 158.60)
27 06/21/2023 15:06:10 ( 22.67, 158.81) 06/21/2023 15:09:45 ( 10.05, 155.82)
28 06/22/2023 02:16:11 ( 13.35, 165.59) 06/22/2023 02:18:50 ( 22.68, 163.35)
29 06/22/2023 03:56:44 ( 10.01, 140.99) 06/22/2023 03:58:33 ( 16.41, 139.50)
30 06/22/2023 14:47:07 ( 22.69, 163.58) 06/22/2023 14:50:43 ( 10.01, 160.57)
31 06/23/2023 03:37:41 ( 10.05, 145.74) 06/23/2023 03:41:16 ( 22.67, 142.74)
32 06/23/2023 14:31:20 ( 11.15, 165.59) 06/23/2023 14:31:39 ( 10.03, 165.33)
